Weather History for Toledo, OH

Change the Weather History Date:

Sunday, March 17, 2013

  Actual Average Record
Temperature  
Mean Temperature 28 °F 38 °F  
Max Temperature 32 °F 47 °F 77 °F (2012)
Min Temperature 24 °F 29 °F -2 °F (1900)
Degree Days  
Heating Degree Days 37 27  
Month to date heating degree days 545 511  
Since 1 July heating degree days 5001 5087  
Cooling Degree Days 0 0  
Month to date cooling degree days 0 0  
Year to date cooling degree days 0 0  
Moisture  
Dew Point 18 °F    
Average Humidity 62    
Maximum Humidity 75    
Minimum Humidity 49    
Precipitation  
Precipitation 0.00 in 0.08 in 0.95 in (1980)
Month to date precipitation 0.44 1.28  
Year to date precipitation 6.88 5.40  
Snow  
Snow 0.00 in 0.20 in - ()
Month to date snowfall 0.1 3.8  
Since 1 July snowfall 22.6 34.3  
Snow Depth 0.00 in    
Sea Level Pressure  
Sea Level Pressure 30.19 in    
Wind  
Wind Speed 10 mph (NE)    
Max Wind Speed 17 mph    
Max Gust Speed 23 mph    
Visibility 10 miles    
Events      
T = Trace of Precipitation, MM = Missing Value Source: NWS Daily Summary

Daily Weather History Graph

Daily Weather History Graph

Search for Another Location

Airport:

Trip Planner

Search our weather history database for the weather conditions in past years. The results will help you decide how hot, cold, wet, or windy it might be!

Date:

Astronomy

Mar. 17, 2013 Rise Set
Actual Time 7:43 AM EDT 7:44 PM EDT
Civil Twilight 7:15 AM EDT 8:12 PM EDT
Nautical Twilight 6:43 AM EDT 8:44 PM EDT
Astronomical Twilight 6:10 AM EDT 9:17 PM EDT
Moon 10:50 AM EDT (3/17) 12:55 AM EDT (3/17)
Length of Visible Light 12h 56m
Length of Day
12h 01m
Waxing Crescent, 31% of the Moon is Illuminated
Mar 17
Waxing Crescent
Mar 19
First Quarter
Mar 27
Full
Apr 3
Last Quarter
Apr 10
New

Hourly Weather History & Observations

Time (EDT) Temp. Windchill Dew Point Humidity Pressure Visibility Wind Dir Wind Speed Gust Speed Precip Events Conditions
12:52 AM 30.0 °F 21.7 °F 21.9 °F 72% 30.08 in 10.0 mi WNW 9.2 mph - N/A   Overcast
1:52 AM 30.0 °F - 21.0 °F 69% 30.07 in 10.0 mi Calm Calm - N/A   Overcast
2:52 AM 30.0 °F 26.5 °F 21.9 °F 72% 30.09 in 10.0 mi SW 3.5 mph - N/A   Overcast
3:52 AM 30.0 °F 21.1 °F 23.0 °F 75% 30.11 in 10.0 mi WNW 10.4 mph - N/A   Overcast
4:52 AM 27.0 °F 16.1 °F 18.0 °F 69% 30.12 in 10.0 mi North 12.7 mph - N/A   Overcast
5:22 AM 26.6 °F 20.0 °F 17.6 °F 69% 30.10 in 10.0 mi NNW 5.8 mph - N/A   Scattered Clouds
5:52 AM 26.1 °F 20.5 °F 17.1 °F 69% 30.14 in 10.0 mi NNW 4.6 mph - N/A   Clear
6:52 AM 25.0 °F 20.7 °F 17.1 °F 72% 30.17 in 10.0 mi NNE 3.5 mph - N/A   Clear
7:52 AM 24.1 °F 17.0 °F 17.1 °F 75% 30.19 in 10.0 mi North 5.8 mph - N/A   Clear
8:52 AM 25.0 °F 16.3 °F 17.1 °F 72% 30.22 in 10.0 mi North 8.1 mph - N/A   Clear
9:52 AM 26.1 °F 16.2 °F 17.1 °F 69% 30.25 in 10.0 mi NNE 10.4 mph - N/A   Clear
10:52 AM 28.0 °F 17.5 °F 17.1 °F 63% 30.25 in 10.0 mi NNE 12.7 mph - N/A   Clear
11:52 AM 28.9 °F 19.2 °F 17.1 °F 61% 30.25 in 10.0 mi ENE 11.5 mph - N/A   Scattered Clouds
12:34 PM 30.2 °F 19.8 °F 17.6 °F 60% 30.23 in 10.0 mi ENE 13.8 mph - N/A   Mostly Cloudy
12:52 PM 30.0 °F 19.1 °F 16.0 °F 56% 30.26 in 10.0 mi ENE 15.0 mph 18.4 mph N/A   Mostly Cloudy
1:08 PM 30.2 °F 20.8 °F 15.8 °F 55% 30.23 in 10.0 mi East 11.5 mph - N/A   Scattered Clouds
1:52 PM 32.0 °F 22.1 °F 16.0 °F 52% 30.25 in 10.0 mi ENE 13.8 mph 19.6 mph N/A   Partly Cloudy
2:52 PM 32.0 °F 22.1 °F 15.1 °F 50% 30.24 in 10.0 mi ENE 13.8 mph - N/A   Partly Cloudy
3:52 PM 30.0 °F 19.5 °F 17.1 °F 59% 30.23 in 10.0 mi ENE 13.8 mph - N/A   Overcast
4:07 PM 30.2 °F 20.2 °F 17.6 °F 60% 30.20 in 10.0 mi ENE 12.7 mph - N/A   Overcast
4:52 PM 28.9 °F 18.2 °F 17.1 °F 61% 30.23 in 10.0 mi ENE 13.8 mph - N/A   Overcast
5:52 PM 28.9 °F 19.2 °F 17.1 °F 61% 30.22 in 10.0 mi East 11.5 mph 19.6 mph N/A   Overcast
6:52 PM 28.0 °F 18.1 °F 17.1 °F 63% 30.22 in 10.0 mi East 11.5 mph - N/A   Overcast
7:52 PM 27.0 °F 17.3 °F 17.1 °F 66% 30.22 in 10.0 mi East 10.4 mph - N/A   Overcast
8:37 PM 26.6 °F 16.8 °F 17.6 °F 69% 30.21 in 10.0 mi ENE 10.4 mph - N/A   Partly Cloudy
8:52 PM 27.0 °F 16.1 °F 17.1 °F 66% 30.24 in 10.0 mi ENE 12.7 mph 17.3 mph N/A   Clear
9:52 PM 27.0 °F 15.6 °F 18.0 °F 69% 30.22 in 10.0 mi East 13.8 mph - N/A   Clear
10:52 PM 27.0 °F 15.2 °F 18.0 °F 69% 30.19 in 10.0 mi East 15.0 mph - N/A   Clear
11:52 PM 27.0 °F 16.7 °F 19.0 °F 72% 30.17 in 10.0 mi East 11.5 mph - N/A   Clear